Weather History for KNHK - February, 2013

Change the Weather History Date:

Friday, February 22, 2013

  Actual Average Record
Temperature  
Mean Temperature 34 °F -  
Max Temperature 36 °F 52 °F 60 °F (2014)
Min Temperature 32 °F 32 °F 28 °F (2014)
Degree Days  
Heating Degree Days 31    
Moisture  
Dew Point 24 °F    
Average Humidity 69    
Maximum Humidity 89    
Minimum Humidity 50    
Precipitation  
Precipitation 0.04 in - - ()
Sea Level Pressure  
Sea Level Pressure 30.31 in    
Wind  
Wind Speed 8 mph (NE)    
Max Wind Speed 17 mph    
Max Gust Speed 25 mph    
Visibility 9 miles    
Events Rain    
Averages and records for this station are not official NWS values.
T = Trace of Precipitation, MM = Missing Value Source: NWS Daily Summary

Daily Weather History Graph

Daily Weather History Graph

Search for Another Location

Airport or City:

Trip Planner

Search our weather history database for the weather conditions in past years. The results will help you decide how hot, cold, wet, or windy it might be!

Date:

Astronomy

Feb. 22, 2013 Rise Set
Actual Time 6:46 AM EST 5:51 PM EST
Civil Twilight 6:20 AM EST 6:18 PM EST
Nautical Twilight 5:49 AM EST 6:49 PM EST
Astronomical Twilight 5:18 AM EST 7:19 PM EST
Moon 3:02 PM EST 4:28 AM EST
Length of Visible Light 11h 58m
Length of Day
11h 04m
Waxing Gibbous, 90% of the Moon is Illuminated
Feb 22
Waxing Gibbous
Feb 25
Full
Mar 4
Last Quarter
Mar 11
New
Mar 19
First Quarter

Hourly Weather History & Observations

Time (EST) Temp. Windchill Dew Point Humidity Pressure Visibility Wind Dir Wind Speed Gust Speed Precip Events Conditions
12:52 AM 34.0 °F 23.4 °F 17.1 °F 50% 30.29 in 10.0 mi North 17.3 mph 25.3 mph N/A   Clear
1:52 AM 34.0 °F 26.0 °F 18.0 °F 52% 30.31 in 10.0 mi NNW 10.4 mph 18.4 mph N/A   Clear
2:52 AM 33.1 °F 26.9 °F 19.0 °F 56% 30.32 in 10.0 mi NNW 6.9 mph - N/A   Clear
3:52 AM 33.1 °F 26.1 °F 19.0 °F 56% 30.36 in 10.0 mi WNW 8.1 mph - N/A   Clear
4:52 AM 32.0 °F 23.6 °F 18.0 °F 56% 30.39 in 10.0 mi WNW 10.4 mph - N/A   Clear
5:14 AM 32.0 °F 27.5 °F 17.6 °F 55% 30.37 in 10.0 mi WNW 4.6 mph - N/A   Partly Cloudy
5:52 AM 32.0 °F 24.8 °F 18.0 °F 56% 30.36 in 10.0 mi North 8.1 mph - N/A   Mostly Cloudy
6:52 AM 32.0 °F 24.2 °F 18.0 °F 56% 30.37 in 10.0 mi NNE 9.2 mph - N/A   Overcast
7:52 AM 32.0 °F 26.4 °F 18.0 °F 56% 30.39 in 10.0 mi NE 5.8 mph - N/A   Overcast
8:52 AM 32.0 °F 23.6 °F 18.0 °F 56% 30.38 in 10.0 mi ENE 10.4 mph - N/A   Overcast
9:52 AM 32.0 °F 23.6 °F 19.0 °F 59% 30.35 in 10.0 mi ENE 10.4 mph - N/A   Overcast
10:52 AM 33.1 °F 25.5 °F 19.9 °F 59% 30.35 in 10.0 mi East 9.2 mph - N/A   Overcast
11:52 AM 34.0 °F 27.2 °F 21.9 °F 61% 30.34 in 10.0 mi ESE 8.1 mph - 0.00 in   Light Ice Pellets
12:01 PM 33.8 °F 28.6 °F 21.2 °F 60% 30.34 in 10.0 mi ESE 5.8 mph - 0.00 in   Overcast
12:52 PM 34.0 °F 29.8 °F 23.0 °F 64% 30.33 in 10.0 mi East 4.6 mph - 0.00 in Rain Light Rain
1:28 PM 33.8 °F 29.6 °F 24.8 °F 70% 30.33 in 10.0 mi East 4.6 mph - 0.00 in   Light Ice Pellets
1:52 PM 34.0 °F 28.8 °F 26.1 °F 73% 30.32 in 7.0 mi ESE 5.8 mph - 0.00 in   Overcast
2:03 PM 33.8 °F 29.6 °F 26.6 °F 75% 30.31 in 10.0 mi East 4.6 mph - 0.00 in Rain Light Rain
2:17 PM 33.8 °F - 26.6 °F 75% 30.31 in 10.0 mi Calm Calm - 0.00 in   Overcast
2:52 PM 35.1 °F - 27.0 °F 72% 30.31 in 10.0 mi Calm Calm - 0.00 in   Overcast
3:52 PM 35.1 °F 31.0 °F 27.0 °F 72% 30.29 in 10.0 mi East 4.6 mph - 0.01 in   Overcast
4:38 PM 35.6 °F 32.8 °F 28.4 °F 75% 30.28 in 8.0 mi ENE 3.5 mph - 0.00 in Rain Light Rain
4:52 PM 35.1 °F - 28.0 °F 76% 30.29 in 10.0 mi Calm Calm - 0.00 in Rain Light Rain
5:52 PM 35.1 °F - 30.0 °F 82% 30.29 in 8.0 mi Calm Calm - 0.02 in Rain Light Rain
6:45 PM 35.6 °F - 30.2 °F 81% 30.29 in 10.0 mi Calm Calm - 0.00 in   Overcast
6:52 PM 35.1 °F - 30.0 °F 82% 30.28 in 10.0 mi Calm Calm - 0.00 in   Overcast
7:52 PM 35.1 °F - 30.0 °F 82% 30.26 in 10.0 mi Calm Calm - N/A   Overcast
8:52 PM 35.1 °F 31.0 °F 30.0 °F 82% 30.26 in 10.0 mi North 4.6 mph - 0.01 in   Overcast
9:52 PM 36.0 °F 32.1 °F 30.9 °F 82% 30.25 in 10.0 mi North 4.6 mph - N/A   Overcast
10:39 PM 35.6 °F 30.7 °F 32.0 °F 87% 30.24 in 6.0 mi North 5.8 mph - 0.00 in   Light Drizzle
10:52 PM 36.0 °F 33.3 °F 32.0 °F 86% 30.23 in 5.0 mi North 3.5 mph - 0.00 in   Light Drizzle
11:52 PM 36.0 °F 31.1 °F 33.1 °F 89% 30.23 in 4.0 mi North 5.8 mph - 0.00 in   Light Drizzle